Alexander City, AL

6:01 PM CDT on April 26, 2017 (GMT -0500)
Russell

Weather History for KALX - March, 2014

Change the Weather History Date:

Monday, March 17, 2014

  Actual Average (KAUO) Record (KAUO)
Temperature  
Mean Temperature 57 °F -  
Max Temperature 64 °F 66 °F 84 °F (1982)
Min Temperature 50 °F 40 °F 22 °F (1988)
Degree Days  
Heating Degree Days 8    
Growing Degree Days 7 (Base 50)    
Moisture  
Dew Point 51 °F    
Average Humidity 84    
Maximum Humidity 86    
Minimum Humidity 80    
Precipitation  
Precipitation 0.11 in - - ()
Sea Level Pressure  
Sea Level Pressure 29.72 in    
Wind  
Wind Speed 5 mph (WNW)    
Max Wind Speed 12 mph    
Max Gust Speed 20 mph    
Visibility 8 miles    
Events Rain    
Averages and records for this station are not official NWS values.
T = Trace of Precipitation, MM = Missing Value Source: NWS Daily Summary

Daily Weather History Graph

Daily Weather History Graph

Search for Another Location

Airport or City:

Trip Planner

Search our weather history database for the weather conditions in past years. The results will help you decide how hot, cold, wet, or windy it might be!

Date:

Astronomy

Mar. 17, 2014 Rise Set
Actual Time 6:51 AM CDT 6:53 PM CDT
Civil Twilight 6:26 AM CDT 7:17 PM CDT
Nautical Twilight 5:58 AM CDT 7:46 PM CDT
Astronomical Twilight 5:29 AM CDT 8:15 PM CDT
Moon 8:03 PM CDT (3/17) 7:10 AM CDT (3/17)
Length of Visible Light 12h 50m
Length of Day
12h 01m
Full, 99% of the Moon is Illuminated
Mar 17
Full
Mar 23
Last Quarter
Mar 30
New
Apr 7
First Quarter
Apr 15
Full

Hourly Weather History & Observations

Time (CDT) Temp. Dew Point Humidity Pressure Visibility Wind Dir Wind Speed Gust Speed Precip Events Conditions
12:15 AM 64.4 °F 59.4 °F 84% 29.69 in 10.0 mi South 5.8 mph - N/A   Overcast
12:35 AM 64.4 °F 59.2 °F 83% 29.69 in 10.0 mi South 4.6 mph - N/A   Overcast
1:15 AM 63.5 °F 58.6 °F 84% 29.69 in 10.0 mi SSW 8.1 mph - N/A   Overcast
1:35 AM 63.5 °F 58.6 °F 84% 29.69 in 10.0 mi South 5.8 mph - N/A   Overcast
1:55 AM 63.1 °F 58.3 °F 84% 29.68 in 10.0 mi SSW 8.1 mph - N/A   Overcast
2:15 AM 63.0 °F 58.1 °F 84% 29.68 in 10.0 mi South 5.8 mph - N/A Rain Rain
2:35 AM 62.8 °F 58.1 °F 85% 29.67 in 7.0 mi South 5.8 mph - 0.02 in Rain Rain
2:55 AM 62.8 °F 58.1 °F 85% 29.66 in 10.0 mi SSW 8.1 mph - 0.02 in   Drizzle
3:15 AM 62.8 °F 58.1 °F 85% 29.66 in 7.0 mi SSW 5.8 mph - 0.03 in Rain Light Rain
3:35 AM 62.8 °F 58.1 °F 85% 29.66 in 7.0 mi SW 6.9 mph - 0.04 in Rain Light Rain
3:55 AM 62.8 °F 58.1 °F 85% 29.65 in 10.0 mi SW 4.6 mph - N/A   Drizzle
4:15 AM 62.8 °F 58.1 °F 85% 29.64 in 10.0 mi SW 5.8 mph - N/A   Overcast
4:35 AM 62.8 °F 58.1 °F 85% 29.63 in 10.0 mi Calm Calm - N/A   Overcast
4:55 AM 62.8 °F 58.1 °F 85% 29.63 in 10.0 mi Calm Calm - 0.01 in   Overcast
5:15 AM 62.8 °F 58.1 °F 85% 29.63 in 10.0 mi SW 6.9 mph - N/A   Overcast
5:35 AM 62.1 °F 57.2 °F 84% 29.63 in 10.0 mi WSW 3.5 mph - N/A   Overcast
5:55 AM 61.7 °F 57.0 °F 85% 29.62 in 10.0 mi SW 3.5 mph - N/A   Overcast
6:15 AM 61.7 °F 57.2 °F 85% 29.66 in 10.0 mi WSW 4.6 mph - N/A   Overcast
6:35 AM 61.7 °F 56.8 °F 84% 29.67 in 10.0 mi Calm Calm - N/A   Overcast
6:55 AM 61.7 °F 56.8 °F 84% 29.67 in 7.0 mi WSW 4.6 mph - N/A   Overcast
7:15 AM 59.2 °F 54.0 °F 83% 29.69 in 10.0 mi NNW 9.2 mph 19.6 mph N/A Rain Light Rain
7:35 AM 57.7 °F 52.7 °F 83% 29.72 in 7.0 mi NW 11.5 mph 16.1 mph N/A   Light Drizzle
7:55 AM 55.4 °F 50.2 °F 83% 29.71 in 10.0 mi NW 8.1 mph - N/A   Overcast
8:15 AM 55.4 °F 50.2 °F 83% 29.72 in 10.0 mi NNW 8.1 mph - N/A   Overcast
8:35 AM 55.4 °F 50.2 °F 83% 29.71 in 7.0 mi NNW 6.9 mph - N/A   Drizzle
8:55 AM 55.4 °F 50.5 °F 84% 29.71 in 10.0 mi NNW 4.6 mph - N/A   Overcast
9:15 AM 55.4 °F 50.5 °F 84% 29.71 in 10.0 mi NW 5.8 mph - N/A   Mostly Cloudy
9:35 AM 55.4 °F 50.5 °F 84% 29.70 in 10.0 mi North 5.8 mph - N/A Rain Rain
9:55 AM 55.4 °F 50.4 °F 83% 29.70 in 10.0 mi North 4.6 mph - N/A   Mostly Cloudy
10:15 AM 55.4 °F 50.2 °F 83% 29.72 in 10.0 mi Calm Calm - 0.01 in Rain Rain
10:35 AM 55.4 °F 50.2 °F 83% 29.75 in 7.0 mi WNW 4.6 mph - 0.02 in Rain Rain
10:55 AM 55.4 °F 50.4 °F 83% 29.75 in 7.0 mi WNW 5.8 mph - 0.03 in Rain Rain
11:15 AM 55.4 °F 50.5 °F 84% 29.76 in 10.0 mi WNW 6.9 mph - N/A   Overcast
11:35 AM 55.4 °F 50.5 °F 84% 29.76 in 10.0 mi NW 9.2 mph - N/A   Overcast
11:55 AM 52.7 °F 48.2 °F 85% 29.76 in 10.0 mi NW 6.9 mph - N/A   Overcast
12:15 PM 52.7 °F 48.2 °F 85% 29.74 in 10.0 mi NNW 4.6 mph - N/A   Overcast
12:35 PM 52.7 °F 48.2 °F 85% 29.72 in 10.0 mi NW 4.6 mph - N/A   Overcast
12:55 PM 52.7 °F 48.0 °F 84% 29.73 in 10.0 mi NNW 6.9 mph - N/A   Overcast
1:15 PM 53.1 °F 48.2 °F 84% 29.73 in 10.0 mi NW 5.8 mph - N/A   Overcast
1:35 PM 55.4 °F 50.2 °F 83% 29.71 in 10.0 mi NW 5.8 mph - N/A   Overcast
1:55 PM 55.4 °F 50.0 °F 82% 29.70 in 10.0 mi NW 5.8 mph - N/A   Overcast
2:15 PM 55.4 °F 50.0 °F 82% 29.70 in 10.0 mi NW 6.9 mph - N/A   Overcast
2:35 PM 55.4 °F 50.0 °F 82% 29.69 in 10.0 mi NW 4.6 mph - N/A   Overcast
2:55 PM 54.5 °F 49.3 °F 83% 29.70 in 10.0 mi NW 4.6 mph - N/A   Overcast
3:15 PM 55.4 °F 50.0 °F 82% 29.69 in 10.0 mi NW 3.5 mph - N/A   Overcast
3:35 PM 55.4 °F 50.0 °F 82% 29.70 in 10.0 mi NNW 4.6 mph - N/A   Overcast
3:55 PM 55.4 °F 49.5 °F 80% 29.70 in 10.0 mi NNW 5.8 mph - N/A   Overcast
4:15 PM 55.4 °F 49.3 °F 80% 29.69 in 10.0 mi WNW 4.6 mph - N/A   Overcast
4:35 PM 55.4 °F 49.5 °F 80% 29.70 in 10.0 mi WNW 5.8 mph - N/A   Overcast
4:55 PM 52.7 °F 47.5 °F 82% 29.70 in 10.0 mi West 5.8 mph - N/A   Overcast
5:15 PM 52.7 °F 47.8 °F 84% 29.71 in 7.0 mi West 6.9 mph - N/A   Overcast
5:35 PM 51.8 °F 47.3 °F 85% 29.71 in 4.0 mi WNW 5.8 mph - N/A   Haze
5:55 PM 51.4 °F 47.1 °F 85% 29.72 in 1.8 mi WNW 4.6 mph - N/A   Haze
6:15 PM 50.5 °F 46.2 °F 85% 29.73 in 2.0 mi WNW 4.6 mph - N/A   Haze
6:35 PM 50.2 °F 46.0 °F 86% 29.74 in 2.0 mi NW 4.6 mph - N/A   Overcast
6:55 PM 50.2 °F 46.0 °F 86% 29.75 in 2.0 mi WNW 6.9 mph - N/A   Overcast
7:15 PM 50.2 °F 45.9 °F 85% 29.76 in 2.0 mi WNW 5.8 mph - N/A Rain Light Rain
7:35 PM 50.2 °F 46.0 °F 86% 29.76 in 2.0 mi WNW 3.5 mph - N/A   Light Drizzle
7:55 PM 50.2 °F 46.0 °F 86% 29.77 in 2.5 mi Calm Calm - N/A   Light Drizzle
8:15 PM 50.2 °F 46.0 °F 86% 29.78 in 2.0 mi Calm Calm - N/A Rain Light Rain
8:35 PM 50.2 °F 46.0 °F 86% 29.79 in 2.0 mi Calm Calm - N/A   Light Drizzle
8:55 PM 50.2 °F 46.0 °F 86% 29.80 in 2.0 mi NW 3.5 mph - N/A   Overcast
9:15 PM 50.2 °F 46.0 °F 86% 29.81 in 2.0 mi West 3.5 mph - N/A Rain Rain
9:35 PM 50.2 °F 46.0 °F 86% 29.82 in 2.5 mi WNW 4.6 mph - N/A   Light Drizzle
9:55 PM 50.2 °F 46.0 °F 86% 29.83 in 2.0 mi NW 3.5 mph - N/A   Drizzle
10:35 PM 50.2 °F 46.0 °F 86% 29.84 in 2.5 mi NNW 4.6 mph - 0.01 in   Light Drizzle
10:55 PM 50.2 °F 46.0 °F 86% 29.84 in 2.5 mi NW 4.6 mph - 0.01 in   Drizzle
11:15 PM 50.2 °F 46.0 °F 86% 29.83 in 2.5 mi NNW 4.6 mph - N/A   Light Drizzle
11:35 PM 50.2 °F 46.0 °F 86% 29.82 in 3.0 mi East 4.6 mph - N/A   Light Drizzle
11:55 PM 50.2 °F 46.0 °F 86% 29.81 in 10.0 mi East 3.5 mph - N/A   Overcast